WD0REW Weather Reports


time (UTC)temp
C
wind
direction
speed
KPH
gust
KPH
rain 1hr
cm
rain 24hr
cm
rain mn
cm
humidity
%
barometer
mb
20260505140200 13 28 0.0 6.4 0.00 0.13 0.13 78 1008.2
20260505130124 13 16 0.0 3.2 0.00 0.13 0.13 79 1007.9
20260505124613 13 343 3.2 4.8 0.00 0.13 0.13 81 1007.7
20260505124109 13 2 1.6 3.2 0.00 0.13 0.13 81 1007.9
20260505123606 13 353 1.6 6.4 0.00 0.13 0.13 81 1008.0
20260505123103 13 5 3.2 4.8 0.00 0.13 0.13 81 1007.7
20260505122559 13 235 6.4 9.7 0.00 0.13 0.13 81 1007.2
20260505122056 13 357 3.2 6.4 0.00 0.13 0.13 82 1007.6
20260505121552 13 3 0.0 9.7 0.00 0.13 0.13 82 1007.1
20260505121050 13 1 3.2 6.4 0.00 0.13 0.13 82 1007.4
20260505120546 14 29 1.6 4.8 0.00 0.13 0.13 83 1007.3
20260505120042 14 4 0.0 1.6 0.00 0.13 0.13 83 1007.5
20260505115536 14 22 1.6 3.2 0.00 0.13 0.13 84 1007.4
20260505115034 14 4 0.0 3.2 0.00 0.13 0.13 85 1007.2
20260505114531 14 13 0.0 9.7 0.00 0.13 0.13 84 1007.3
20260505114027 14 357 3.2 3.2 0.00 0.13 0.13 84 1007.6
20260505113524 14 4 3.2 4.8 0.00 0.13 0.13 85 1007.0
20260505113020 15 1 1.6 16.1 0.00 0.13 0.13 84 1006.8
20260505112517 15 12 3.2 4.8 0.00 0.13 0.13 84 1007.0
20260505112015 15 347 9.7 11.3 0.00 0.13 0.13 83 1006.1
20260505111514 15 1 0.0 11.3 0.00 0.13 0.13 85 1006.5
20260505111010 15 2 0.0 6.4 0.00 0.13 0.13 85 1007.2
20260505110507 15 356 6.4 6.4 0.00 0.13 0.13 85 1007.4
20260505101940 16 357 1.6 3.2 0.00 0.13 0.13 88 1007.0
20260505101438 16 358 3.2 4.8 0.00 0.13 0.13 88 1006.5
20260505100934 15 354 0.0 9.7 0.00 0.13 0.13 89 1006.4
20260505100431 15 3 1.6 4.8 0.00 0.13 0.13 91 1007.1
20260505095927 15 10 1.6 3.2 0.00 0.13 0.13 92 1006.6
20260505095424 15 10 0.0 1.6 0.00 0.13 0.13 91 1006.2
20260505094920 15 10 1.6 1.6 0.00 0.13 0.13 91 1006.4
20260505094417 15 11 1.6 1.6 0.00 0.13 0.13 90 1005.7
20260505093913 15 11 1.6 1.6 0.00 0.13 0.13 89 1005.5
20260505093410 15 11 0.0 0.0 0.00 0.13 0.13 88 1005.7
20260505092908 15 11 0.0 0.0 0.00 0.13 0.13 88 1005.9
20260505092406 15 53 0.0 0.0 0.00 0.13 0.13 88 1005.8
20260505091903 15 57 1.6 3.2 0.00 0.13 0.13 89 1005.6
20260505091400 15 350 3.2 4.8 0.00 0.13 0.13 90 1005.4
20260505090858 15 351 3.2 4.8 0.00 0.13 0.13 89 1004.6
20260505090356 16 45 1.6 1.6 0.13 0.13 0.13 88 1004.5
20260505085853 16 146 3.2 16.1 0.13 0.13 0.13 87 1004.4
20260505085351 16 242 3.2 9.7 0.00 0.10 0.10 88 1004.7
20260505084849 16 182 6.4 12.9 0.18 0.10 0.10 88 1004.7
20260505084347 16 126 4.8 9.7 0.13 0.08 0.08 87 1005.4
20260505083844 16 194 3.2 4.8 0.18 0.05 0.05 86 1006.4
20260505083341 16 10 0.0 3.2 0.36 0.05 0.05 86 1006.6
20260505082838 16 1 1.6 3.2 0.18 0.03 0.03 85 1006.5
20260505082334 16 317 3.2 6.4 0.00 0.00 0.00 84 1007.1
20260505081831 17 29 0.0 9.7 0.00 0.00 0.00 83 1006.6
20260505081327 17 355 3.2 11.3 0.00 0.00 0.00 81 1006.9
20260505080824 17 7 3.2 4.8 0.00 0.00 0.00 80 1006.8
20260505080320 17 86 3.2 6.4 0.00 0.00 0.00 79 1006.2
20260505075815 17 359 3.2 9.7 0.00 0.00 0.00 76 1006.4
20260505075313 17 5 3.2 6.4 0.00 0.00 0.00 74 1006.3
20260505074810 18 254 1.6 9.7 0.00 0.00 0.00 73 1006.3
20260505074307 18 352 3.2 4.8 0.00 0.00 0.00 73 1006.4
20260505073805 18 338 3.2 4.8 0.00 0.00 0.00 72 1006.5
20260505073303 18 36 0.0 1.6 0.00 0.00 0.00 71 1006.5
20260505072759 18 359 1.6 3.2 0.00 0.00 0.00 70 1006.3
20260505072255 18 7 0.0 1.6 0.00 0.00 0.00 69 1006.0
20260505071751 18 21 0.0 1.6 0.00 0.00 0.00 68 1006.3
20260505071248 18 18 0.0 4.8 0.00 0.00 0.00 68 1006.3
20260505070745 18 42 1.6 9.7 0.00 0.00 0.00 67 1006.2
20260505070242 18 354 1.6 3.2 0.00 0.00 0.00 67 1006.1
20260505065737 18 138 4.8 6.4 0.00 0.00 0.00 67 1006.2
20260505065234 18 3 0.0 3.2 0.00 0.00 0.00 67 1006.0
20260505064731 18 22 1.6 3.2 0.00 0.00 0.00 67 1006.0
20260505064229 18 29 1.6 4.8 0.00 0.00 0.00 67 1006.3
20260505063726 18 47 3.2 6.4 0.00 0.00 0.00 67 1006.5
20260505063222 18 12 0.0 1.6 0.00 0.00 0.00 67 1006.8
20260505062719 18 230 3.2 4.8 0.00 0.00 0.00 66 1006.9
20260505062217 18 3 1.6 4.8 0.00 0.00 0.00 66 1006.9
20260505061713 18 88 0.0 3.2 0.00 0.00 0.00 67 1006.6
20260505061212 18 6 1.6 3.2 0.00 0.00 0.00 67 1007.0
20260505060708 18 25 0.0 1.6 0.00 0.00 0.00 67 1006.9
20260505060205 18 278 3.2 4.8 0.00 0.00 0.00 66 1007.0
20260505055700 18 35 0.0 1.6 0.00 0.00 0.00 66 1006.4
20260505055157 18 31 0.0 3.2 0.00 0.00 0.00 66 1006.8
20260505054655 18 14 3.2 3.2 0.00 0.00 0.00 66 1006.8
20260505054153 18 3 0.0 4.8 0.00 0.00 0.00 66 1007.0
20260505053650 18 13 1.6 4.8 0.00 0.00 0.00 66 1006.9
20260505053146 18 33 0.0 3.2 0.00 0.00 0.00 66 1006.9
20260505052643 18 285 3.2 9.7 0.00 0.00 0.00 65 1006.9
20260505052141 18 102 1.6 4.8 0.00 0.00 0.00 65 1006.6
20260505051637 18 139 4.8 6.4 0.00 0.00 0.00 65 1006.6
20260505051136 18 54 1.6 6.4 0.00 0.00 0.00 65 1006.8
20260505050633 18 69 0.0 4.8 0.00 0.00 0.00 65 1006.8
20260505050131 18 32 1.6 3.2 0.00 0.00 0.00 65 1006.8
20260505041601 19 39 0.0 3.2 0.00 0.00 0.00 64 1007.4
20260505041058 19 55 1.6 1.6 0.00 0.00 0.00 64 1007.5
20260505040555 19 342 0.0 1.6 0.00 0.00 0.00 63 1007.6
20260505040052 19 20 1.6 3.2 0.00 0.00 0.00 63 1007.6
20260505035549 20 26 1.6 1.6 0.00 0.00 0.00 63 1007.7
20260505035045 20 349 0.0 1.6 0.00 0.00 0.00 62 1007.8
20260505034542 20 350 1.6 1.6 0.00 0.00 0.00 62 1007.8
20260505034039 20 16 0.0 0.0 0.00 0.00 0.00 61 1008.0
20260505033536 20 4 0.0 1.6 0.00 0.00 0.00 61 1008.0
20260505033034 20 41 1.6 1.6 0.00 0.00 0.00 60 1008.2
20260505032531 20 41 3.2 3.2 0.00 0.00 0.00 59 1008.0
20260505032028 20 37 3.2 9.7 0.00 0.00 0.00 59 1007.9
20260505031525 20 21 0.0 3.2 0.00 0.00 0.00 59 1007.9
20260505031021 21 8 0.0 4.8 0.00 0.00 0.00 59 1007.9
20260505030518 21 347 0.0 3.2 0.00 0.00 0.00 58 1007.7
20260505030015 21 300 1.6 3.2 0.00 0.00 0.00 58 1008.0
20260505025510 21 29 3.2 4.8 0.00 0.00 0.00 58 1008.0
20260505025010 21 6 0.0 1.6 0.00 0.00 0.00 57 1007.9
20260505024506 21 332 1.6 9.7 0.00 0.00 0.00 57 1007.7
20260505024003 21 88 1.6 4.8 0.00 0.00 0.00 57 1007.6
20260505023500 21 301 3.2 4.8 0.00 0.00 0.00 57 1007.5
20260505022957 21 28 0.0 3.2 0.00 0.00 0.00 57 1007.6
20260505022455 21 313 4.8 6.4 0.00 0.00 0.00 57 1007.5
20260505021952 21 356 0.0 1.6 0.00 0.00 0.00 57 1007.1
20260505021448 21 9 3.2 3.2 0.00 0.00 0.00 57 1007.2
20260505020944 21 0 1.6 4.8 0.00 0.00 0.00 56 1007.1
20260505020439 21 67 1.6 6.4 0.00 0.00 0.00 56 1007.3
20260505015937 21 328 1.6 3.2 0.00 0.00 0.00 55 1007.1
20260505015434 21 50 1.6 3.2 0.00 0.00 0.00 56 1007.0
20260505014931 22 34 1.6 1.6 0.00 0.00 0.00 55 1006.9
20260505014428 22 67 1.6 1.6 0.00 0.00 0.00 55 1006.8
20260505013925 22 299 3.2 3.2 0.00 0.00 0.00 55 1006.9
20260505013422 22 339 1.6 3.2 0.00 0.00 0.00 54 1006.6
20260505012920 22 306 3.2 4.8 0.00 0.00 0.00 53 1006.4
20260505012418 22 338 1.6 6.4 0.00 0.00 0.00 53 1006.5
20260505011914 22 282 1.6 3.2 0.00 0.00 0.00 53 1006.5
20260505011410 22 1 0.0 1.6 0.00 0.00 0.00 52 1006.2
20260505010907 22 23 0.0 1.6 0.00 0.00 0.00 52 1006.3
20260505010402 22 14 0.0 1.6 0.00 0.00 0.00 51 1006.1
20260505005858 23 342 3.2 4.8 0.00 0.00 0.00 50 1006.2
20260505005355 23 287 3.2 4.8 0.00 0.00 0.00 49 1006.1
20260505004853 23 44 1.6 3.2 0.00 0.00 0.00 49 1006.0
20260505004349 23 14 0.0 4.8 0.00 0.00 0.00 48 1006.1
20260505003847 23 43 0.0 1.6 0.00 0.00 0.00 48 1006.2
20260505003344 23 290 1.6 4.8 0.00 0.00 0.00 48 1006.2
20260505002840 23 326 3.2 4.8 0.00 0.00 0.00 48 1006.1
20260505002337 23 14 0.0 3.2 0.00 0.00 0.00 48 1005.9
20260505001835 23 39 1.6 6.4 0.00 0.00 0.00 47 1005.9
20260505001332 24 38 0.0 1.6 0.00 0.00 0.00 46 1006.0
20260505000829 24 55 3.2 4.8 0.00 0.00 0.00 46 1005.8
20260505000327 24 52 1.6 1.6 0.00 0.00 0.00 46 1006.0
20260504235823 24 302 3.2 3.2 0.00 0.00 0.00 45 1006.1
20260504235320 25 347 1.6 3.2 0.00 0.00 0.00 46 1005.9
20260504234817 25 16 0.0 3.2 0.00 0.00 0.00 44 1006.3
20260504234315 25 18 1.6 4.8 0.00 0.00 0.00 44 1005.9
20260504233811 25 200 6.4 11.3 0.00 0.00 0.00 45 1005.8
20260504233306 25 301 6.4 11.3 0.00 0.00 0.00 43 1005.9
20260504232803 25 7 3.2 12.9 0.00 0.00 0.00 44 1005.9
20260504232301 25 8 3.2 4.8 0.00 0.00 0.00 44 1005.9
20260504231758 25 252 9.7 12.9 0.00 0.00 0.00 44 1006.0
20260504231254 25 124 4.8 6.4 0.00 0.00 0.00 43 1005.8
20260504230750 25 272 6.4 9.7 0.00 0.00 0.00 43 1006.1
20260504230248 25 254 3.2 4.8 0.00 0.00 0.00 44 1006.0
20260504225747 25 282 3.2 6.4 0.00 0.00 0.00 43 1006.0
20260504225243 25 93 6.4 12.9 0.00 0.00 0.00 42 1006.0
20260504224740 26 67 3.2 12.9 0.00 0.00 0.00 42 1006.0
20260504224237 26 68 3.2 9.7 0.00 0.00 0.00 43 1006.0
20260504223733 26 206 4.8 12.9 0.00 0.00 0.00 44 1005.9
20260504223229 26 343 1.6 4.8 0.00 0.00 0.00 42 1005.8
20260504222726 26 292 9.7 14.5 0.00 0.00 0.00 42 1006.0
20260504222223 26 276 4.8 11.3 0.00 0.00 0.00 42 1005.9
20260504221721 26 286 9.7 14.5 0.00 0.00 0.00 42 1006.0
20260504221217 26 223 12.9 17.7 0.00 0.00 0.00 41 1006.0
20260504220714 26 268 9.7 11.3 0.00 0.00 0.00 42 1006.0
20260504220212 26 28 3.2 6.4 0.00 0.00 0.00 44 1006.1
20260504215708 26 282 3.2 12.9 0.00 0.00 0.00 43 1006.0
20260504215205 26 42 3.2 11.3 0.00 0.00 0.00 43 1006.0
20260504214701 26 23 3.2 9.7 0.00 0.00 0.00 43 1005.9
20260504214157 26 264 6.4 9.7 0.00 0.00 0.00 44 1006.2
20260504213654 26 99 4.8 12.9 0.00 0.00 0.00 43 1006.3
20260504213151 26 146 4.8 12.9 0.00 0.00 0.00 44 1006.2
20260504212647 26 333 1.6 12.9 0.00 0.00 0.00 44 1006.4
20260504212144 26 19 4.8 6.4 0.00 0.00 0.00 42 1006.1
20260504211641 26 277 6.4 11.3 0.00 0.00 0.00 41 1006.4
20260504211138 26 353 1.6 6.4 0.00 0.00 0.00 43 1006.4
20260504210636 27 7 1.6 6.4 0.00 0.00 0.00 42 1006.4
20260504210132 26 225 9.7 11.3 0.00 0.00 0.00 43 1006.8
20260504205629 26 120 4.8 12.9 0.00 0.00 0.00 43 1006.5
20260504205127 26 345 1.6 14.5 0.00 0.00 0.00 43 1006.6
20260504204625 26 247 6.4 12.9 0.00 0.00 0.00 42 1006.4
20260504204124 26 67 3.2 11.3 0.00 0.00 0.00 44 1006.6
20260504203623 27 315 1.6 16.1 0.00 0.00 0.00 42 1006.6
20260504203120 27 60 1.6 11.3 0.00 0.00 0.00 42 1006.9
20260504202620 27 335 3.2 4.8 0.00 0.00 0.00 43 1007.0
20260504202117 27 145 6.4 12.9 0.00 0.00 0.00 40 1007.1
20260504201614 27 323 1.6 14.5 0.00 0.00 0.00 44 1007.1
20260504201112 27 230 8.0 11.3 0.00 0.00 0.00 41 1007.3
20260504200609 27 237 4.8 6.4 0.00 0.00 0.00 41 1007.3
20260504200105 27 85 4.8 4.8 0.00 0.00 0.00 40 1007.1
20260504195601 27 66 6.4 12.9 0.00 0.00 0.00 40 1007.3
20260504195057 27 346 3.2 9.7 0.00 0.00 0.00 45 1007.4
20260504194554 27 239 6.4 11.3 0.00 0.00 0.00 41 1007.6
20260504194049 27 339 0.0 4.8 0.00 0.00 0.00 40 1007.5
20260504193546 27 350 3.2 17.7 0.00 0.00 0.00 41 1007.5
20260504193045 26 257 6.4 16.1 0.00 0.00 0.00 42 1007.6
20260504192543 27 41 4.8 9.7 0.00 0.00 0.00 40 1007.7
20260504192041 27 141 3.2 4.8 0.00 0.00 0.00 41 1007.6
20260504191538 27 231 8.0 12.9 0.00 0.00 0.00 41 1007.8
20260504191034 27 19 3.2 4.8 0.00 0.00 0.00 41 1007.7
20260504190531 27 258 1.6 3.2 0.00 0.00 0.00 45 1007.7
20260504190027 27 227 8.0 11.3 0.00 0.00 0.00 41 1007.6
20260504185524 27 171 8.0 14.5 0.00 0.00 0.00 41 1007.7
20260504185020 26 358 1.6 9.7 0.00 0.00 0.00 43 1007.6
20260504184516 26 255 6.4 20.9 0.00 0.00 0.00 40 1007.7
20260504184012 27 10 6.4 20.9 0.00 0.00 0.00 40 1007.8
20260504183509 26 332 8.0 11.3 0.00 0.00 0.00 42 1007.8
20260504183007 27 270 8.0 11.3 0.00 0.00 0.00 40 1007.7
20260504182503 26 31 1.6 3.2 0.00 0.00 0.00 45 1007.8
20260504182001 26 312 4.8 9.7 0.00 0.00 0.00 41 1007.6
20260504181458 26 249 4.8 11.3 0.00 0.00 0.00 42 1007.4
20260504180956 26 243 4.8 9.7 0.00 0.00 0.00 43 1007.7
20260504180455 26 282 4.8 20.9 0.00 0.00 0.00 42 1007.6
20260504175953 26 256 6.4 22.5 0.00 0.00 0.00 43 1007.6
20260504175450 26 300 3.2 6.4 0.00 0.00 0.00 45 1007.8
20260504174947 26 306 3.2 11.3 0.00 0.00 0.00 44 1007.7
20260504174445 26 311 1.6 17.7 0.00 0.00 0.00 45 1008.0
20260504173942 26 241 4.8 6.4 0.00 0.00 0.00 44 1008.1
20260504173438 26 312 4.8 16.1 0.00 0.00 0.00 43 1008.0
20260504172936 25 60 4.8 9.7 0.00 0.00 0.00 46 1007.8
20260504172431 26 11 3.2 14.5 0.00 0.00 0.00 44 1008.1
20260504171928 25 334 4.8 6.4 0.00 0.00 0.00 44 1008.0
20260504171425 25 232 9.7 12.9 0.00 0.00 0.00 43 1008.1
20260504170922 25 284 9.7 14.5 0.00 0.00 0.00 42 1008.1
20260504170418 25 25 3.2 11.3 0.00 0.00 0.00 43 1008.0
20260504160337 23 229 4.8 16.1 0.00 0.00 0.00 45 1008.7
20260504150802 23 343 6.4 11.3 0.00 0.00 0.00 44 1009.1
20260504150259 22 316 3.2 6.4 0.00 0.00 0.00 47 1009.2